Date String (YYYY-MM-DD hh:mm:ss) UTC,Instrument flags,absolute air pressure of the measurement (hPa),sample flow rate (lpm),inlet stack bypass flow (lpm),air temperature of the measurement (°C),ambient temperature measured by the external sensor (°C),aerosol sample conditioner tube jacket temperature (°C),OPC LED temperature (°C),internal box temperature (°C),relative humidity of the measurement (%),span deviation,mass concentration of particles derived from Lorenz-Mie calculation of OPC scattering (μg/m³),mass concentration of particles derived from Lorenz-Mie calculation of OPC scattering (μg/m³),mass concentration of particles derived from Lorenz-Mie calculation of OPC scattering (μg/m³)
DateTimeUTC,F1_M11,P_M11,Q1_M11,Q2_M11,T1_M11,T2_M11,T3_M11,T4_M11,T5_M11,U1_M11,ZSPAN_M11,X0_M11,X2_M11,X1_M11
2023-11-28 13:00:00,SystemResetWarning,0832.5,5.01,000.00,018.8,017.9,000.0,027.2,020.0,10.5,0000.0,0003.72,0002.79,0002.44
2023-11-28 13:01:00,SystemResetWarning,0832.5,5.00,000.00,018.8,017.9,000.0,027.2,020.0,10.1,0000.0,0003.69,0002.79,0002.47
2023-11-28 13:02:00,SystemResetWarning,0832.4,5.01,000.00,018.8,017.9,000.0,027.2,020.0,9.8,0000.0,0003.69,0002.79,0002.47
2023-11-28 13:03:00,SystemResetWarning,0832.5,5.00,000.00,018.8,017.9,000.0,027.2,020.0,9.8,0000.0,0004.07,0002.78,0002.44
2023-11-28 13:04:00,SystemResetWarning,0832.5,5.00,000.00,018.8,017.9,000.0,027.2,020.0,9.7,0000.0,0004.36,0002.77,0002.45
2023-11-28 13:05:00,SystemResetWarning,0832.5,4.99,000.00,018.8,017.9,000.0,027.2,020.0,9.6,0000.0,0004.49,0002.81,0002.47
2023-11-28 13:06:00,SystemResetWarning,0832.5,5.00,000.00,018.8,017.9,000.0,027.2,020.0,9.2,0000.0,0004.66,0002.88,0002.50
2023-11-28 13:07:00,SystemResetWarning,0832.5,5.00,000.00,018.8,017.9,000.0,027.2,020.0,9.1,0000.0,0004.51,0002.82,0002.49
2023-11-28 13:08:00,SystemResetWarning,0832.5,5.01,000.00,018.8,017.9,000.0,027.2,020.0,9.1,0000.0,0004.35,0002.72,0002.40
2023-11-28 13:09:00,SystemResetWarning,0832.5,5.01,000.00,018.8,017.9,000.0,027.2,020.0,9.1,0000.0,0004.26,0002.66,0002.32
2023-11-28 13:10:00,SystemResetWarning,0832.5,5.01,000.00,018.8,017.9,000.0,027.2,020.0,9.2,0000.0,0004.19,0002.61,0002.26
2023-11-28 13:11:00,SystemResetWarning,0832.4,4.99,000.00,018.8,017.9,000.0,027.2,020.0,9.2,0000.0,0004.14,0002.58,0002.21
2023-11-28 13:12:00,SystemResetWarning,0832.4,4.99,000.00,018.8,017.9,000.0,027.2,020.0,9.1,0000.0,0004.03,0002.50,0002.12
2023-11-28 13:13:00,SystemResetWarning,0832.3,4.99,000.00,018.8,017.9,000.0,027.2,020.0,9.0,0000.0,0003.89,0002.37,0002.02
2023-11-28 13:14:00,SystemResetWarning,0832.4,5.01,000.00,018.8,017.9,000.0,027.2,020.0,9.0,0000.0,0003.39,0002.24,0001.90
2023-11-28 13:15:00,SystemResetWarning,0832.4,5.00,000.00,018.8,017.9,000.0,027.2,020.0,9.0,0000.0,0002.92,0002.13,0001.76
2023-11-28 13:16:00,SystemResetWarning,0832.3,5.01,000.00,018.8,017.9,000.0,027.2,020.0,9.0,0000.0,0002.71,0001.98,0001.65
2023-11-28 13:17:00,SystemResetWarning,0832.3,4.99,000.00,018.8,017.9,000.0,027.2,020.0,8.9,0000.0,0002.63,0001.88,0001.55
2023-11-28 13:18:00,SystemResetWarning,0832.3,4.99,000.00,018.8,017.9,000.0,027.2,020.0,8.9,0000.0,0002.45,0001.76,0001.46
2023-11-28 13:19:00,SystemResetWarning,0832.3,5.00,000.00,018.8,017.8,000.0,027.2,020.0,8.9,0000.0,0002.38,0001.73,0001.41
2023-11-28 13:20:00,SystemResetWarning,0832.3,5.01,000.00,018.8,017.9,000.0,027.2,020.0,8.8,0000.0,0002.35,0001.65,0001.35
2023-11-28 13:21:00,SystemResetWarning,0832.3,5.01,000.00,018.8,017.9,000.0,027.2,020.0,8.7,0000.0,0002.30,0001.58,0001.28
2023-11-28 13:22:00,SystemResetWarning,0832.3,4.99,000.00,018.8,017.9,000.0,027.2,020.0,8.7,0000.0,0002.20,0001.49,0001.22
2023-11-28 13:23:00,SystemResetWarning,0832.3,4.99,000.00,018.8,017.8,000.0,027.2,020.0,8.7,0000.0,0002.25,0001.50,0001.21
2023-11-28 13:24:00,SystemResetWarning,0832.4,5.01,000.00,018.8,017.8,000.0,027.2,020.0,8.7,0000.0,0002.26,0001.49,0001.20
2023-11-28 13:25:00,SystemResetWarning,0832.5,5.01,000.00,018.8,017.8,000.0,027.2,020.0,8.7,0000.0,0002.28,0001.48,0001.16
2023-11-28 13:26:00,SystemResetWarning,0832.5,5.00,000.00,018.8,017.8,000.0,027.2,020.0,9.1,0000.0,0002.21,0001.43,0001.12
2023-11-28 13:27:00,SystemResetWarning,0832.4,5.01,000.00,018.8,017.8,000.0,027.2,020.0,8.9,0000.0,0002.23,0001.40,0001.08
2023-11-28 13:28:00,SystemResetWarning,0832.4,5.00,000.00,018.8,017.8,000.0,027.2,020.0,8.9,0000.0,0002.11,0001.37,0001.04
2023-11-28 13:29:00,SystemResetWarning,0832.5,4.99,000.00,018.8,017.8,000.0,027.2,020.0,9.1,0000.0,0002.18,0001.38,0001.03
2023-11-28 13:30:00,SystemResetWarning,0832.5,4.99,000.00,018.8,017.8,000.0,027.2,020.0,9.5,0000.0,0002.22,0001.39,0001.03
2023-11-28 13:31:00,SystemResetWarning,0832.4,4.99,000.00,018.8,017.8,000.0,027.2,020.0,9.8,0000.0,0002.21,0001.41,0001.02
2023-11-28 13:32:00,SystemResetWarning,0832.3,5.00,000.00,018.8,017.8,000.0,027.2,020.0,9.4,0000.0,0002.20,0001.43,0001.04
2023-11-28 13:33:00,SystemResetWarning,0832.3,5.00,000.00,018.8,017.8,000.0,027.2,020.0,9.1,0000.0,0002.28,0001.46,0001.04
2023-11-28 13:34:00,SystemResetWarning,0832.4,5.00,000.00,018.8,017.8,000.0,027.2,020.0,9.1,0000.0,0002.22,0001.43,0001.03
2023-11-28 13:35:00,SystemResetWarning,0832.4,5.00,000.00,018.8,017.8,000.0,027.2,020.0,9.4,0000.0,0002.26,0001.45,0001.03
2023-11-28 13:36:00,SystemResetWarning,0832.3,4.99,000.00,018.8,017.8,000.0,027.2,020.0,9.8,0000.0,0002.35,0001.48,0001.06
2023-11-28 13:37:00,SystemResetWarning,0832.4,4.99,000.00,018.7,017.7,000.0,027.2,020.0,9.7,0000.0,0002.47,0001.55,0001.12
2023-11-28 13:38:00,SystemResetWarning,0832.3,5.00,000.00,018.7,017.7,000.0,027.2,020.0,9.5,0000.0,0002.40,0001.55,0001.14
2023-11-28 13:39:00,SystemResetWarning,0832.3,5.00,000.00,018.7,017.7,000.0,027.2,020.0,9.1,0000.0,0002.29,0001.52,0001.14
2023-11-28 13:40:00,SystemResetWarning,0832.2,5.00,000.00,018.7,017.7,000.0,027.2,020.0,8.8,0000.0,0002.24,0001.54,0001.16
2023-11-28 13:41:00,SystemResetWarning,0832.2,5.00,000.00,018.7,017.6,000.0,027.2,020.0,8.8,0000.0,0002.32,0001.58,0001.18
2023-11-28 13:42:00,SystemResetWarning,0832.2,5.01,000.00,018.7,017.6,000.0,027.2,020.0,8.8,0000.0,0002.36,0001.62,0001.22
2023-11-28 13:43:00,SystemResetWarning,0832.2,5.00,000.00,018.7,017.6,000.0,027.2,020.0,9.0,0000.0,0002.49,0001.72,0001.27
2023-11-28 13:44:00,SystemResetWarning,0832.2,5.00,000.00,018.7,017.6,000.0,027.2,020.0,9.1,0000.0,0002.52,0001.74,0001.31
2023-11-28 13:45:00,SystemResetWarning,0832.2,5.00,000.00,018.7,017.6,000.0,027.2,020.0,8.9,0000.0,0002.48,0001.74,0001.34
2023-11-28 13:46:00,SystemResetWarning,0832.2,4.99,000.00,018.7,017.6,000.0,027.2,020.0,8.8,0000.0,0002.41,0001.72,0001.36
2023-11-28 13:47:00,SystemResetWarning,0832.2,5.00,000.00,018.7,017.6,000.0,027.2,020.0,8.8,0000.0,0002.33,0001.70,0001.36
2023-11-28 13:48:00,SystemResetWarning,0832.2,5.01,000.00,018.7,017.6,000.0,027.2,020.0,8.9,0000.0,0002.20,0001.66,0001.34
2023-11-28 13:49:00,SystemResetWarning,0832.2,5.02,000.00,018.7,017.6,000.0,027.2,020.0,8.9,0000.0,0002.18,0001.64,0001.32
2023-11-28 13:50:00,SystemResetWarning,0832.2,5.00,000.00,018.7,017.6,000.0,027.2,020.0,8.9,0000.0,0002.32,0001.71,0001.37
2023-11-28 13:51:00,SystemResetWarning,0832.2,4.99,000.00,018.7,017.6,000.0,027.2,020.0,8.8,0000.0,0002.50,0001.72,0001.40
2023-11-28 13:52:00,SystemResetWarning,0832.2,5.00,000.00,018.7,017.6,000.0,027.2,020.0,8.9,0000.0,0003.32,0001.66,0001.38
2023-11-28 13:53:00,SystemResetWarning,0832.2,5.02,000.00,018.7,017.6,000.0,027.2,020.0,9.1,0000.0,0003.25,0001.64,0001.38
2023-11-28 13:54:00,SystemResetWarning,0832.2,5.01,000.00,018.7,017.6,000.0,027.2,020.0,8.8,0000.0,0003.16,0001.57,0001.36
2023-11-28 13:55:00,SystemResetWarning,0832.2,4.99,000.00,018.7,017.6,000.0,027.2,020.0,8.5,0000.0,0003.10,0001.55,0001.35
2023-11-28 13:56:00,SystemResetWarning,0832.2,4.99,000.00,018.7,017.5,000.0,027.2,020.0,8.3,0000.0,0003.12,0001.56,0001.35
2023-11-28 13:57:00,SystemResetWarning,0832.2,5.01,000.00,018.7,017.5,000.0,027.2,020.0,8.3,0000.0,0003.15,0001.58,0001.36
2023-11-28 13:58:00,SystemResetWarning,0832.2,5.00,000.00,018.7,017.5,000.0,027.2,020.0,8.3,0000.0,0003.21,0001.62,0001.40
2023-11-28 13:59:00,SystemResetWarning,0832.2,5.01,000.00,018.7,017.5,000.0,027.2,020.0,8.6,0000.0,0003.21,0001.64,0001.43
